Tracking 18793 objects as of 24-September-2017
HD Live streaming from Space Station
objects crossing your sky now

COSMOS 2494 (SKRL 756)

Track COSMOS 2494 (SKRL 756) now!
10-day predictions
COSMOS 2494 (SKRL 756) is classified as:


NORAD ID: 39491
Int'l Code: 2013-078B
Perigee: 590.1 km
Apogee: 622.9 km
Inclination: 82.4 °
Period: 96.7 minutes
Semi major axis: 6977 km
RCS: Unknown
Launch date: December 28, 2013
Source: Commonwealth of Independent States (former USSR) (CIS)
Launch site: PLESETSK MISSILE AND SPACE COMPLEX (PKMTR)
aabbcc
Your satellite tracking list
Your tracking list is empty





NASA's NSSDC Master Catalog

Two Line Element Set (TLE):
1 39491U 13078B   17267.23216630  .00000317  00000-0  30490-4 0  9992
2 39491  82.4162  84.6674 0023475  54.5289 305.8115 14.89541155203146
Source of the keplerian elements: AFSPC